"Pseudo-MPEC" for CER1D52

Created 2026 Sep 5 10:35:07 UT using Find_Orb

Click here for an explanation of pseudo-MPECs

 
 Astrometry: 
     CER1D52*1C2026 09 05.11675320 27 13.820-04 16 37.16   ~953Z 19.59GVNEOCPG96
     CER1D52 1C2026 09 05.12498820 27 16.733-04 15 02.56   ~953Z 20.11GVNEOCPG96
     CER1D52 1C2026 09 05.13058020 27 18.666-04 13 58.30   ~953Z 21.01GVNEOCPG96
     CER1D52 1C2026 09 05.15442120 27 26.845-04 09 21.89   ~9545 20.57GVNEOCPV06
     CER1D52 1C2026 09 05.15506820 27 27.061-04 09 14.40   ~9545 20.13GVNEOCPV06
     CER1D52 1C2026 09 05.15571620 27 27.284-04 09 06.84   ~9545 20.46GVNEOCPV06
     CER1D52 1C2026 09 05.15636220 27 27.508-04 08 59.42   ~9545 20.31GVNEOCPV06
     CER1D52 1C2026 09 05.20069920 27 42.584-04 00 19.66   ~9555 20.19GVNEOCPV06
     CER1D52 1C2026 09 05.20098320 27 42.692-04 00 16.31   ~9555 20.62GVNEOCPV06
     CER1D52 1C2026 09 05.20126820 27 42.793-04 00 12.78   ~9555 20.06GVNEOCPV06
     CER1D52 1C2026 09 05.20155220 27 42.876-04 00 09.50   ~9555 20.42GVNEOCPV06

Station data:
(G96) Mt. Lemmon Survey  (N32.442729 W110.788720)
   US/Arizona.  Observer E. J. Christensen. Measurers T. Beuden, V. F.
   Carvajal, D. Fay, J. B. Fazekas, D. C. Fuls, A. R. Gibbs, A. D. Grauer, H.
   Gröller, J. K. Hogan, R. A. Kowalski, S. M. Larson, G. J. Leonard, D.
   Rankin, R. L. Seaman, F. C. Shelly, K. W. Wierzchoś. 1.5-m reflector + 10K
   CCD.
(V06) Catalina Sky Survey-Kuiper  (N32.416871 W110.732550)  US/Arizona.
   Measurers T. Beuden, V. F. Carvajal, D. Fay, J. B. Fazekas, D. C. Fuls, A.
   R. Gibbs, A. D. Grauer, H. Gröller, J. K. Hogan, R. A. Kowalski, S. M.
   Larson, G. J. Leonard, D. Rankin, R. L. Seaman, F. C. Shelly, K. W.
   Wierzchoś. 1.55-m reflector + CCD.

Orbital elements:  CER1D52
   Perihelion 2026 Sep 28.111946 +/- 0.656 TT =  2:41:12.1 (JD 2461311.611946)
Epoch 2026 Sep  5.0 TT = JDT 2461288.5   Earth MOID: 0.0089   Ma: 0.0184
M 350.129173497 +/- 1.4             (J2000 ecliptic)             AutoNEOCP
n   0.427087637 +/- 0.0616          Peri.   49.247856 +/- 7
a   1.746323570 +/- 0.168           Node   318.904333 +/- 6
e   0.42996523 +/- 0.0564           Incl.    0.908362 +/- 0.29
P   2.308/842.902d         H 27.10  G  0.15   U 10.9
q 0.995465151 +/- 0.00449    Q 2.497181988 +/- 0.338
From 11 observations 2026 Sept. 5 (2.0 hr); mean residual 0".11
Residuals in arcseconds: 
260905 G96  .23-  .06+    260905 V06  .13-  .04+    260905 V06  .08+  .07-    
260905 G96  .28+  .01+    260905 V06  .11-  .07+    260905 V06  .14+  .09+    
260905 G96  .11+  .15-    260905 V06  .06-  .03-    260905 V06  .06-  .01+    
260905 V06  .05-  .08+    260905 V06  .09-  .07-    

Ephemerides (geocentric):
Date (UTC) HH   RA             Dec           delta  r     elong  mag " sig PA
---- --------  ------------   ------------  ------ ------ -----  --- --------
2026 09 05 11  20 29 46.656   -03 04 12.99  .02380 1.0275 143.5 20.5 67.9  63
2026 09 05 12  20 30 07.654   -02 55 21.09  .02367 1.0274 143.5 20.5 78.0  66
2026 09 05 13  20 30 28.901   -02 46 22.96  .02353 1.0273 143.6 20.5 88.5  68
2026 09 05 14  20 30 50.401   -02 37 18.51  .02339 1.0271 143.6 20.5   99  70
2026 09 05 15  20 31 12.158   -02 28 07.64  .02325 1.0270 143.6 20.4  110  71
2026 09 05 16  20 31 34.177   -02 18 50.24  .02312 1.0269 143.7 20.4  122  72
2026 09 05 17  20 31 56.462   -02 09 26.20  .02298 1.0268 143.7 20.4  133  73
2026 09 05 18  20 32 19.017   -01 59 55.44  .02284 1.0267 143.7 20.4  145  73
2026 09 05 19  20 32 41.847   -01 50 17.83  .02271 1.0266 143.8 20.4  158  74
2026 09 05 20  20 33 04.957   -01 40 33.27  .02257 1.0265 143.8 20.4  170  74
2026 09 05 21  20 33 28.351   -01 30 41.65  .02243 1.0263 143.8 20.4  183  75
2026 09 05 22  20 33 52.035   -01 20 42.85  .02230 1.0262 143.9 20.4  196  75
2026 09 05 23  20 34 16.014   -01 10 36.75  .02216 1.0261 143.9 20.3  210  75
2026 09 06 00  20 34 40.292   -01 00 23.25  .02203 1.0260 143.9 20.3  223  75
2026 09 06 01  20 35 04.875   -00 50 02.22  .02189 1.0259 144.0 20.3  237  75
2026 09 06 02  20 35 29.769   -00 39 33.53  .02176 1.0258 144.0 20.3  251  75
2026 09 06 03  20 35 54.978   -00 28 57.08  .02163 1.0257 144.0 20.3  266  75
2026 09 06 04  20 36 20.509   -00 18 12.72  .02149 1.0256 144.1 20.3  281  75
2026 09 06 05  20 36 46.367   -00 07 20.33  .02136 1.0254 144.1 20.3  296  75
2026 09 06 06  20 37 12.558   +00 03 40.22  .02123 1.0253 144.1 20.2  312  75
2026 09 06 07  20 37 39.089   +00 14 49.06  .02109 1.0252 144.2 20.2  328  75
2026 09 06 08  20 38 05.965   +00 26 06.32  .02096 1.0251 144.2 20.2  344  75
2026 09 06 09  20 38 33.192   +00 37 32.15  .02083 1.0250 144.3 20.2  361  75
2026 09 06 10  20 39 00.778   +00 49 06.69  .02070 1.0249 144.3 20.2  378  75
2026 09 06 11  20 39 28.728   +01 00 50.07  .02056 1.0248 144.3 20.2  395  74
2026 09 06 12  20 39 57.050   +01 12 42.43  .02043 1.0247 144.4 20.1  413  74
2026 09 06 13  20 40 25.751   +01 24 43.94  .02030 1.0246 144.4 20.1  432  74
2026 09 06 14  20 40 54.837   +01 36 54.73  .02017 1.0245 144.4 20.1  450  74
2026 09 06 15  20 41 24.316   +01 49 14.96  .02004 1.0243 144.5 20.1  469  74
2026 09 06 16  20 41 54.196   +02 01 44.78  .01991 1.0242 144.5 20.1  489  73
2026 09 06 17  20 42 24.484   +02 14 24.35  .01978 1.0241 144.6 20.1  509  73
2026 09 06 18  20 42 55.188   +02 27 13.82  .01965 1.0240 144.6 20.1  530  73
2026 09 06 19  20 43 26.316   +02 40 13.36  .01952 1.0239 144.6 20.0  551  73
2026 09 06 20  20 43 57.877   +02 53 23.13  .01940 1.0238 144.7 20.0  572  73
2026 09 06 21  20 44 29.878   +03 06 43.30  .01927 1.0237 144.7 20.0  594  72
2026 09 06 22  20 45 02.329   +03 20 14.03  .01914 1.0236 144.7 20.0  617  72
2026 09 06 23  20 45 35.238   +03 33 55.50  .01901 1.0235 144.8 20.0  640  72
2026 09 07 00  20 46 08.614   +03 47 47.89  .01889 1.0234 144.8 20.0  663  72
2026 09 07 01  20 46 42.468   +04 01 51.35  .01876 1.0233 144.9 19.9  688  71
2026 09 07 02  20 47 16.807   +04 16 06.09  .01863 1.0232 144.9 19.9  712  71
2026 09 07 03  20 47 51.643   +04 30 32.27  .01851 1.0230 144.9 19.9  738  71
2026 09 07 04  20 48 26.986   +04 45 10.07  .01838 1.0229 145.0 19.9  764  71
2026 09 07 05  20 49 02.845   +04 59 59.70  .01826 1.0228 145.0 19.9  791  70
2026 09 07 06  20 49 39.232   +05 15 01.32  .01813 1.0227 145.0 19.9  818  70
2026 09 07 07  20 50 16.156   +05 30 15.14  .01801 1.0226 145.1 19.9  846  70
2026 09 07 08  20 50 53.631   +05 45 41.33  .01789 1.0225 145.1 19.8  875  70
2026 09 07 09  20 51 31.666   +06 01 20.11  .01777 1.0224 145.1 19.8  904  69
2026 09 07 10  20 52 10.274   +06 17 11.66  .01764 1.0223 145.2 19.8  934  69